Time,TemperatureF,DewpointF,PressureIn,WindDirection,WindDirectionDegrees,WindSpeedMPH,WindSpeedGustMPH,Humidity,HourlyPrecipIn,Conditions,Clouds,dailyrainin,SoftwareType,DateUTC
2013-07-20 00:01:00,79.8,74.9,29.86,SSW,213,6.9,6.9,85,0.00,RA,,0.00,WeatherDisplay:10.37,2013-07-20 04:01:00,
2013-07-20 00:06:00,79.8,74.5,29.86,SSW,197,9.2,9.2,84,0.00,CLR,,0.00,WeatherDisplay:10.37,2013-07-20 04:06:00,
2013-07-20 00:11:00,79.8,74.2,29.86,SW,215,3.5,3.5,83,0.00,CLR,,0.00,WeatherDisplay:10.37,2013-07-20 04:11:00,
2013-07-20 00:16:00,79.9,74.3,29.85,SW,227,11.5,11.5,83,0.00,CLR,,0.00,WeatherDisplay:10.37,2013-07-20 04:16:00,
2013-07-20 00:21:00,79.8,73.8,29.86,SSW,209,9.2,9.2,82,0.00,CLR,,0.00,WeatherDisplay:10.37,2013-07-20 04:21:00,
2013-07-20 00:26:00,79.8,73.4,29.86,SSW,212,4.0,4.1,81,0.00,CLR,,0.00,WeatherDisplay:10.37,2013-07-20 04:26:00,
2013-07-20 00:31:00,79.8,73.1,29.86,WSW,247,9.0,9.0,80,0.00,CLR,,0.00,WeatherDisplay:10.37,2013-07-20 04:31:00,
2013-07-20 00:36:00,79.8,73.1,29.86,SW,220,10.4,10.4,80,0.00,CLR,,0.00,WeatherDisplay:10.37,2013-07-20 04:36:00,
2013-07-20 00:41:00,79.8,73.1,29.86,SSW,213,4.0,4.0,80,0.00,CLR,,0.00,WeatherDisplay:10.37,2013-07-20 04:41:00,
2013-07-20 00:46:00,79.6,72.9,29.86,WSW,240,4.6,4.9,80,0.00,CLR,,0.00,WeatherDisplay:10.37,2013-07-20 04:46:00,
2013-07-20 00:51:00,79.5,73.2,29.87,WSW,241,3.5,3.5,81,0.00,CLR,,0.00,WeatherDisplay:10.37,2013-07-20 04:51:00,
2013-07-20 00:56:00,79.4,73.1,29.87,SW,225,3.5,3.5,81,0.00,CLR,,0.00,WeatherDisplay:10.37,2013-07-20 04:56:00,
2013-07-20 01:01:00,79.2,72.9,29.87,SSW,211,6.9,6.9,81,0.00,CLR,,0.00,WeatherDisplay:10.37,2013-07-20 05:01:00,
2013-07-20 01:06:00,79.1,72.8,29.87,WSW,244,5.0,5.0,81,0.00,CLR,,0.00,WeatherDisplay:10.37,2013-07-20 05:06:00,
2013-07-20 01:11:00,79.1,72.8,29.87,WSW,241,10.4,10.4,81,0.00,CLR,,0.00,WeatherDisplay:10.37,2013-07-20 05:11:00,
2013-07-20 01:16:00,79.0,72.7,29.87,South,184,8.1,8.1,81,0.00,CLR,,0.00,WeatherDisplay:10.37,2013-07-20 05:16:00,
2013-07-20 01:21:00,78.9,72.6,29.87,WSW,238,8.1,8.1,81,0.00,CLR,,0.00,WeatherDisplay:10.37,2013-07-20 05:21:00,
2013-07-20 01:26:00,78.9,72.6,29.87,SW,231,8.1,8.1,81,0.00,CLR,,0.00,WeatherDisplay:10.37,2013-07-20 05:26:00,
2013-07-20 01:31:00,78.7,72.7,29.87,SW,225,6.0,6.0,82,0.00,CLR,,0.00,WeatherDisplay:10.37,2013-07-20 05:31:00,
2013-07-20 01:36:00,78.6,72.6,29.87,SSW,212,9.0,9.0,82,0.00,CLR,,0.00,WeatherDisplay:10.37,2013-07-20 05:36:00,
2013-07-20 01:41:00,78.5,72.5,29.87,SW,217,6.9,6.9,82,0.00,CLR,,0.00,WeatherDisplay:10.37,2013-07-20 05:41:00,
2013-07-20 01:46:00,78.4,72.4,29.86,SSW,194,8.1,8.1,82,0.00,CLR,,0.00,WeatherDisplay:10.37,2013-07-20 05:46:00,
2013-07-20 01:51:00,78.3,72.7,29.86,SW,236,9.2,9.2,83,0.00,CLR,,0.00,WeatherDisplay:10.37,2013-07-20 05:51:00,
2013-07-20 01:56:00,78.2,72.6,29.86,SW,232,10.4,10.4,83,0.00,CLR,,0.00,WeatherDisplay:10.37,2013-07-20 05:56:00,
2013-07-20 02:02:00,78.1,72.5,29.86,South,188,11.5,11.5,83,0.00,CLR,,0.00,WeatherDisplay:10.37,2013-07-20 06:02:00,
2013-07-20 02:07:00,78.1,72.5,29.86,South,188,9.2,9.2,83,0.00,CLR,,0.00,WeatherDisplay:10.37,2013-07-20 06:07:00,
2013-07-20 02:12:00,78.1,72.5,29.86,SW,221,9.2,9.2,83,0.00,CLR,,0.00,WeatherDisplay:10.37,2013-07-20 06:12:00,
2013-07-20 02:17:00,78.1,72.5,29.86,SW,236,13.8,13.8,83,0.00,CLR,,0.00,WeatherDisplay:10.37,2013-07-20 06:17:00,
2013-07-20 02:22:00,78.0,72.4,29.86,SW,218,8.1,8.1,83,0.00,CLR,,0.00,WeatherDisplay:10.37,2013-07-20 06:22:00,
2013-07-20 02:27:00,78.0,72.4,29.86,SW,230,9.2,9.2,83,0.00,CLR,,0.00,WeatherDisplay:10.37,2013-07-20 06:27:00,
2013-07-20 02:32:00,77.9,72.3,29.86,SSW,205,6.9,6.9,83,0.00,CLR,,0.00,WeatherDisplay:10.37,2013-07-20 06:32:00,
2013-07-20 02:37:00,77.8,72.2,29.86,WSW,238,8.1,8.1,83,0.00,CLR,,0.00,WeatherDisplay:10.37,2013-07-20 06:37:00,
2013-07-20 02:42:00,77.8,72.2,29.85,WSW,254,11.5,11.5,83,0.00,CLR,,0.00,WeatherDisplay:10.37,2013-07-20 06:42:00,
2013-07-20 02:47:00,77.7,72.5,29.85,SSW,194,10.4,10.4,84,0.00,CLR,,0.00,WeatherDisplay:10.37,2013-07-20 06:47:00,
2013-07-20 02:52:00,77.6,72.4,29.85,WSW,240,9.0,9.0,84,0.00,CLR,,0.00,WeatherDisplay:10.37,2013-07-20 06:52:00,
2013-07-20 02:57:00,77.6,72.4,29.84,SW,219,11.5,11.5,84,0.00,CLR,,0.00,WeatherDisplay:10.37,2013-07-20 06:57:00,
2013-07-20 03:02:00,77.5,72.3,29.84,SW,216,5.8,5.8,84,0.00,CLR,,0.00,WeatherDisplay:10.37,2013-07-20 07:02:00,
2013-07-20 03:07:00,77.5,72.3,29.84,SW,215,11.5,11.5,84,0.00,CLR,,0.00,WeatherDisplay:10.37,2013-07-20 07:07:00,
2013-07-20 03:12:00,77.5,72.3,29.84,South,187,5.8,5.8,84,0.00,CLR,,0.00,WeatherDisplay:10.37,2013-07-20 07:12:00,
2013-07-20 03:17:00,77.5,72.3,29.83,SW,229,10.4,10.4,84,0.00,CLR,,0.00,WeatherDisplay:10.37,2013-07-20 07:17:00,
2013-07-20 03:22:00,77.5,72.3,29.83,SW,218,11.5,11.5,84,0.00,CLR,,0.00,WeatherDisplay:10.37,2013-07-20 07:22:00,
2013-07-20 03:27:00,77.5,72.3,29.83,SSW,208,8.1,8.1,84,0.00,CLR,,0.00,WeatherDisplay:10.37,2013-07-20 07:27:00,
2013-07-20 03:32:00,77.4,72.2,29.83,SW,234,12.7,12.7,84,0.00,CLR,,0.00,WeatherDisplay:10.37,2013-07-20 07:32:00,
2013-07-20 03:37:00,77.4,72.2,29.83,WSW,253,11.5,11.5,84,0.00,CLR,,0.00,WeatherDisplay:10.37,2013-07-20 07:37:00,
2013-07-20 03:42:00,77.4,72.2,29.83,SW,223,8.0,8.0,84,0.00,CLR,,0.00,WeatherDisplay:10.37,2013-07-20 07:42:00,
2013-07-20 03:47:00,77.3,72.1,29.83,WSW,244,4.6,4.6,84,0.00,CLR,,0.00,WeatherDisplay:10.37,2013-07-20 07:47:00,
2013-07-20 03:52:00,77.2,72.0,29.82,SSW,194,8.1,8.1,84,0.00,CLR,,0.00,WeatherDisplay:10.37,2013-07-20 07:52:00,
2013-07-20 03:57:00,77.2,72.3,29.82,WSW,257,13.8,13.8,85,0.00,CLR,,0.00,WeatherDisplay:10.37,2013-07-20 07:57:00,
2013-07-20 04:02:00,77.2,72.3,29.82,SW,225,9.2,9.2,85,0.00,CLR,,0.00,WeatherDisplay:10.37,2013-07-20 08:02:00,
2013-07-20 04:07:00,77.1,72.2,29.82,SW,232,11.5,11.5,85,0.00,CLR,,0.00,WeatherDisplay:10.37,2013-07-20 08:07:00,
2013-07-20 04:12:00,77.0,72.1,29.82,SSW,197,10.4,10.4,85,0.00,CLR,,0.00,WeatherDisplay:10.37,2013-07-20 08:12:00,
2013-07-20 04:17:00,76.9,72.0,29.82,SW,223,9.2,9.2,85,0.00,CLR,,0.00,WeatherDisplay:10.37,2013-07-20 08:17:00,
2013-07-20 04:22:00,76.8,71.9,29.82,SW,235,12.7,12.7,85,0.00,CLR,,0.00,WeatherDisplay:10.37,2013-07-20 08:22:00,
2013-07-20 04:27:00,76.8,71.9,29.82,West,261,11.5,11.5,85,0.00,CLR,,0.00,WeatherDisplay:10.37,2013-07-20 08:27:00,
2013-07-20 04:32:00,76.7,72.2,29.81,WSW,248,9.2,9.2,86,0.00,CLR,,0.00,WeatherDisplay:10.37,2013-07-20 08:32:00,
2013-07-20 04:37:00,76.6,72.1,29.81,SW,225,12.7,12.7,86,0.00,CLR,,0.00,WeatherDisplay:10.37,2013-07-20 08:37:00,
2013-07-20 04:42:00,76.5,72.0,29.81,SSW,209,8.1,8.1,86,0.00,CLR,,0.00,WeatherDisplay:10.37,2013-07-20 08:42:00,
2013-07-20 04:47:00,76.4,71.9,29.81,SW,220,11.5,11.5,86,0.00,CLR,,0.00,WeatherDisplay:10.37,2013-07-20 08:47:00,
2013-07-20 04:52:00,76.3,71.8,29.81,SW,214,10.4,10.4,86,0.00,CLR,,0.00,WeatherDisplay:10.37,2013-07-20 08:52:00,
2013-07-20 04:57:00,76.2,71.7,29.81,WSW,246,9.2,9.2,86,0.00,CLR,,0.00,WeatherDisplay:10.37,2013-07-20 08:57:00,
2013-07-20 05:02:00,76.2,71.7,29.81,SSW,205,9.2,9.2,86,0.00,CLR,,0.00,WeatherDisplay:10.37,2013-07-20 09:02:00,
2013-07-20 05:07:00,76.1,71.6,29.80,SSW,204,11.5,11.5,86,0.00,CLR,,0.00,WeatherDisplay:10.37,2013-07-20 09:07:00,
2013-07-20 05:12:00,76.1,71.9,29.80,SSW,212,11.5,11.5,87,0.00,CLR,,0.00,WeatherDisplay:10.37,2013-07-20 09:12:00,
2013-07-20 05:17:00,76.0,71.8,29.80,SSW,202,12.7,12.7,87,0.00,CLR,,0.00,WeatherDisplay:10.37,2013-07-20 09:17:00,
2013-07-20 05:22:00,76.0,71.8,29.80,SW,215,10.0,10.0,87,0.00,CLR,,0.00,WeatherDisplay:10.37,2013-07-20 09:22:00,
2013-07-20 05:27:00,75.9,71.8,29.81,SSW,207,11.5,11.5,87,0.00,CLR,,0.00,WeatherDisplay:10.37,2013-07-20 09:27:00,
2013-07-20 05:32:00,75.9,71.8,29.81,WSW,239,11.5,11.5,87,0.00,CLR,,0.00,WeatherDisplay:10.37,2013-07-20 09:32:00,
2013-07-20 05:37:00,75.8,71.7,29.81,South,184,9.2,9.2,87,0.00,CLR,,0.00,WeatherDisplay:10.37,2013-07-20 09:37:00,
2013-07-20 05:42:00,75.7,71.6,29.81,SW,228,10.4,10.4,87,0.00,CLR,,0.00,WeatherDisplay:10.37,2013-07-20 09:42:00,
2013-07-20 05:47:00,75.8,71.7,29.81,SSW,199,10.4,10.4,87,0.00,CLR,,0.00,WeatherDisplay:10.37,2013-07-20 09:47:00,
2013-07-20 05:52:00,75.8,71.7,29.81,WSW,239,11.5,11.5,87,0.00,CLR,,0.00,WeatherDisplay:10.37,2013-07-20 09:52:00,
2013-07-20 05:57:00,75.7,71.6,29.81,SW,225,8.1,8.1,87,0.00,CLR,,0.00,WeatherDisplay:10.37,2013-07-20 09:57:00,
2013-07-20 06:02:00,75.7,71.6,29.81,WSW,258,8.0,8.0,87,0.00,CLR,,0.00,WeatherDisplay:10.37,2013-07-20 10:02:00,
2013-07-20 06:07:00,75.6,71.5,29.81,SW,231,10.4,10.4,87,0.00,CLR,,0.00,WeatherDisplay:10.37,2013-07-20 10:07:00,
2013-07-20 06:12:00,75.6,71.8,29.81,SW,229,9.2,9.2,88,0.00,CLR,,0.00,WeatherDisplay:10.37,2013-07-20 10:12:00,
2013-07-20 06:17:00,75.5,71.7,29.82,WSW,239,11.5,11.5,88,0.00,CLR,,0.00,WeatherDisplay:10.37,2013-07-20 10:17:00,
2013-07-20 06:22:00,75.5,71.7,29.82,SW,214,10.4,10.4,88,0.00,CLR,,0.00,WeatherDisplay:10.37,2013-07-20 10:22:00,
2013-07-20 06:27:00,75.4,71.6,29.82,SW,223,11.5,11.5,88,0.00,CLR,,0.00,WeatherDisplay:10.37,2013-07-20 10:27:00,
2013-07-20 06:32:00,75.4,71.6,29.82,SW,234,8.1,8.1,88,0.00,CLR,,0.00,WeatherDisplay:10.37,2013-07-20 10:32:00,
2013-07-20 06:37:00,75.4,71.6,29.83,SSW,194,13.8,13.8,88,0.00,CLR,,0.00,WeatherDisplay:10.37,2013-07-20 10:37:00,
2013-07-20 06:42:00,75.3,71.5,29.83,SW,217,11.5,11.5,88,0.00,CLR,,0.00,WeatherDisplay:10.37,2013-07-20 10:42:00,
2013-07-20 06:47:00,75.3,71.5,29.83,WSW,242,9.2,9.2,88,0.00,CLR,,0.00,WeatherDisplay:10.37,2013-07-20 10:47:00,
2013-07-20 06:52:00,75.3,71.5,29.83,SW,214,10.4,10.4,88,0.00,CLR,,0.00,WeatherDisplay:10.37,2013-07-20 10:52:00,
2013-07-20 06:57:00,75.3,71.5,29.84,SW,217,8.1,8.1,88,0.00,CLR,,0.00,WeatherDisplay:10.37,2013-07-20 10:57:00,
2013-07-20 07:02:00,75.3,71.5,29.84,SW,229,3.5,3.5,88,0.00,CLR,,0.00,WeatherDisplay:10.37,2013-07-20 11:02:00,
2013-07-20 07:07:00,75.3,71.8,29.84,SW,221,5.0,5.0,89,0.00,CLR,,0.00,WeatherDisplay:10.37,2013-07-20 11:07:00,
2013-07-20 07:12:00,75.3,71.8,29.84,South,174,11.5,11.5,89,0.00,CLR,,0.00,WeatherDisplay:10.37,2013-07-20 11:12:00,
2013-07-20 07:17:00,75.3,71.8,29.85,SSW,195,6.0,6.0,89,0.00,CLR,,0.00,WeatherDisplay:10.37,2013-07-20 11:17:00,
2013-07-20 07:22:00,75.4,71.6,29.84,SSW,212,4.0,4.0,88,0.00,CLR,,0.00,WeatherDisplay:10.37,2013-07-20 11:22:00,
2013-07-20 07:27:00,75.6,72.1,29.85,SW,225,5.8,5.8,89,0.00,CLR,,0.00,WeatherDisplay:10.37,2013-07-20 11:27:00,
2013-07-20 07:32:00,75.7,71.9,29.85,SSW,199,7.0,7.0,88,0.00,CLR,,0.00,WeatherDisplay:10.37,2013-07-20 11:32:00,
2013-07-20 07:37:00,75.8,72.0,29.85,SW,228,8.1,8.1,88,0.00,CLR,,0.00,WeatherDisplay:10.37,2013-07-20 11:37:00,
2013-07-20 07:42:00,76.0,72.2,29.85,South,171,8.1,8.1,88,0.00,CLR,,0.00,WeatherDisplay:10.37,2013-07-20 11:42:00,
2013-07-20 07:47:00,76.1,72.3,29.85,SSW,197,6.9,6.9,88,0.00,CLR,,0.00,WeatherDisplay:10.37,2013-07-20 11:47:00,
2013-07-20 07:52:00,76.2,72.0,29.85,South,191,5.0,5.0,87,0.00,CLR,,0.00,WeatherDisplay:10.37,2013-07-20 11:52:00,
2013-07-20 07:57:00,76.4,72.2,29.85,SW,221,8.0,8.0,87,0.00,CLR,,0.00,WeatherDisplay:10.37,2013-07-20 11:57:00,
2013-07-20 08:02:00,76.5,72.3,29.85,SSW,202,16.1,16.1,87,0.00,CLR,,0.00,WeatherDisplay:10.37,2013-07-20 12:02:00,
2013-07-20 08:07:00,76.7,72.2,29.85,WSW,248,8.0,8.0,86,0.00,CLR,,0.00,WeatherDisplay:10.37,2013-07-20 12:07:00,
2013-07-20 08:12:00,76.8,72.3,29.85,South,190,9.2,9.2,86,0.00,CLR,,0.00,WeatherDisplay:10.37,2013-07-20 12:12:00,
2013-07-20 08:18:00,76.9,72.4,29.85,SW,217,8.1,8.1,86,0.00,CLR,,0.00,WeatherDisplay:10.37,2013-07-20 12:18:00,
2013-07-20 08:23:00,77.0,72.5,29.85,SSW,213,10.4,10.4,86,0.00,CLR,,0.00,WeatherDisplay:10.37,2013-07-20 12:23:00,
2013-07-20 08:28:00,77.2,72.7,29.85,South,184,11.5,11.5,86,0.00,CLR,,0.00,WeatherDisplay:10.37,2013-07-20 12:28:00,
2013-07-20 08:33:00,77.3,72.8,29.85,SW,227,11.5,11.5,86,0.00,CLR,,0.00,WeatherDisplay:10.37,2013-07-20 12:33:00,
2013-07-20 08:38:00,77.5,72.6,29.84,South,186,10.4,10.4,85,0.00,CLR,,0.00,WeatherDisplay:10.37,2013-07-20 12:38:00,
2013-07-20 08:43:00,77.6,72.7,29.84,South,171,13.8,13.8,85,0.00,CLR,,0.00,WeatherDisplay:10.37,2013-07-20 12:43:00,
2013-07-20 08:48:00,77.7,72.8,29.84,South,183,11.5,11.5,85,0.00,CLR,,0.00,WeatherDisplay:10.37,2013-07-20 12:48:00,
2013-07-20 08:53:00,77.9,73.0,29.85,SW,220,11.5,11.5,85,0.00,CLR,,0.00,WeatherDisplay:10.37,2013-07-20 12:53:00,
2013-07-20 08:58:00,78.1,72.9,29.84,SW,227,12.7,12.7,84,0.00,CLR,,0.00,WeatherDisplay:10.37,2013-07-20 12:58:00,
2013-07-20 09:03:00,78.3,73.1,29.85,SW,225,6.0,6.0,84,0.00,CLR,,0.00,WeatherDisplay:10.37,2013-07-20 13:03:00,
2013-07-20 09:08:00,78.5,72.9,29.85,SW,232,15.0,15.0,83,0.00,CLR,,0.00,WeatherDisplay:10.37,2013-07-20 13:08:00,
2013-07-20 09:13:00,78.7,73.1,29.85,WSW,243,10.4,10.4,83,0.00,CLR,,0.00,WeatherDisplay:10.37,2013-07-20 13:13:00,
2013-07-20 09:18:00,78.9,72.9,29.84,South,186,20.7,20.7,82,0.00,CLR,,0.00,WeatherDisplay:10.37,2013-07-20 13:18:00,
2013-07-20 09:23:00,79.0,73.0,29.85,SW,224,16.1,16.1,82,0.00,CLR,,0.00,WeatherDisplay:10.37,2013-07-20 13:23:00,
2013-07-20 09:28:00,79.1,73.1,29.84,SW,214,13.8,13.8,82,0.00,CLR,,0.00,WeatherDisplay:10.37,2013-07-20 13:28:00,
2013-07-20 09:33:00,79.2,72.9,29.85,SSW,211,12.7,12.7,81,0.00,CLR,,0.00,WeatherDisplay:10.37,2013-07-20 13:33:00,
2013-07-20 09:38:00,79.4,73.1,29.85,SSW,209,17.0,17.0,81,0.00,CLR,,0.00,WeatherDisplay:10.37,2013-07-20 13:38:00,
2013-07-20 09:43:00,79.5,73.5,29.85,WSW,242,12.7,12.7,82,0.00,CLR,,0.00,WeatherDisplay:10.37,2013-07-20 13:43:00,
2013-07-20 09:48:00,79.7,73.3,29.85,SW,227,9.2,9.2,81,0.00,CLR,,0.00,WeatherDisplay:10.37,2013-07-20 13:48:00,
2013-07-20 09:53:00,79.9,73.9,29.85,West,281,11.5,11.5,82,0.00,CLR,,0.00,WeatherDisplay:10.37,2013-07-20 13:53:00,
2013-07-20 09:58:00,79.9,73.2,29.85,WSW,253,19.6,19.6,80,0.00,CLR,,0.00,WeatherDisplay:10.37,2013-07-20 13:58:00,
2013-07-20 10:03:00,80.0,73.6,29.85,South,190,8.1,8.1,81,0.00,CLR,,0.00,WeatherDisplay:10.37,2013-07-20 14:03:00,
2013-07-20 10:08:00,80.2,73.5,29.85,SW,219,12.0,12.0,80,0.00,CLR,,0.00,WeatherDisplay:10.37,2013-07-20 14:08:00,
2013-07-20 10:13:00,80.2,73.5,29.85,WSW,252,17.3,17.3,80,0.00,CLR,,0.00,WeatherDisplay:10.37,2013-07-20 14:13:00,
2013-07-20 10:18:00,80.1,73.4,29.85,West,264,18.4,18.4,80,0.00,CLR,,0.00,WeatherDisplay:10.37,2013-07-20 14:18:00,
2013-07-20 10:23:00,80.3,73.9,29.85,WNW,292,11.5,11.5,81,0.00,CLR,,0.00,WeatherDisplay:10.37,2013-07-20 14:23:00,
2013-07-20 10:28:00,80.7,74.0,29.85,SW,236,10.4,10.4,80,0.00,CLR,,0.00,WeatherDisplay:10.37,2013-07-20 14:28:00,
2013-07-20 10:33:00,81.0,73.9,29.85,South,176,6.9,6.9,79,0.00,CLR,,0.00,WeatherDisplay:10.37,2013-07-20 14:33:00,
2013-07-20 10:38:00,81.2,74.4,29.85,WSW,246,10.4,10.4,80,0.00,CLR,,0.00,WeatherDisplay:10.37,2013-07-20 14:38:00,
2013-07-20 10:43:00,81.5,74.0,29.85,SSE,148,15.0,15.0,78,0.00,CLR,,0.00,WeatherDisplay:10.37,2013-07-20 14:43:00,
2013-07-20 10:48:00,81.9,74.7,29.85,WSW,239,17.0,17.0,79,0.00,CLR,,0.00,WeatherDisplay:10.37,2013-07-20 14:48:00,
2013-07-20 10:53:00,82.0,74.5,29.85,SW,216,14.0,14.0,78,0.00,CLR,,0.00,WeatherDisplay:10.37,2013-07-20 14:53:00,
2013-07-20 10:58:00,82.1,74.2,29.85,WSW,246,14.0,14.0,77,0.00,CLR,,0.00,WeatherDisplay:10.37,2013-07-20 14:58:00,
2013-07-20 11:03:00,82.5,74.2,29.85,WSW,252,11.5,11.5,76,0.00,CLR,,0.00,WeatherDisplay:10.37,2013-07-20 15:03:00,
2013-07-20 11:08:00,82.8,74.5,29.85,SW,236,11.5,11.5,76,0.00,CLR,,0.00,WeatherDisplay:10.37,2013-07-20 15:08:00,
2013-07-20 11:13:00,82.9,74.9,29.85,WSW,258,10.4,10.4,77,0.00,CLR,,0.00,WeatherDisplay:10.37,2013-07-20 15:13:00,
2013-07-20 11:18:00,82.9,73.8,29.85,SSW,207,12.0,12.0,74,0.00,CLR,,0.00,WeatherDisplay:10.37,2013-07-20 15:18:00,
2013-07-20 11:23:00,82.8,74.5,29.85,South,174,16.1,16.1,76,0.00,CLR,,0.00,WeatherDisplay:10.37,2013-07-20 15:23:00,
2013-07-20 11:28:00,82.7,74.4,29.85,SW,226,12.7,12.7,76,0.00,CLR,,0.00,WeatherDisplay:10.37,2013-07-20 15:28:00,
2013-07-20 11:33:00,83.2,74.4,29.85,SSW,213,10.4,10.4,75,0.00,CLR,,0.00,WeatherDisplay:10.37,2013-07-20 15:33:00,
2013-07-20 11:38:00,83.5,75.1,29.85,SW,220,13.8,13.8,76,0.00,CLR,,0.00,WeatherDisplay:10.37,2013-07-20 15:38:00,
2013-07-20 11:43:00,84.0,74.4,29.85,WSW,247,11.0,11.0,73,0.00,CLR,,0.00,WeatherDisplay:10.37,2013-07-20 15:43:00,
2013-07-20 11:48:00,84.1,74.5,29.85,SSW,196,19.6,19.6,73,0.00,CLR,,0.00,WeatherDisplay:10.37,2013-07-20 15:48:00,
2013-07-20 11:53:00,84.4,74.8,29.85,SSW,208,19.6,19.6,73,0.00,CLR,,0.00,WeatherDisplay:10.37,2013-07-20 15:53:00,
2013-07-20 11:58:00,84.5,74.5,29.85,SW,223,9.2,9.2,72,0.00,CLR,,0.00,WeatherDisplay:10.37,2013-07-20 15:58:00,
2013-07-20 12:03:00,85.3,74.8,29.85,SW,226,16.1,16.1,71,0.00,CLR,,0.00,WeatherDisplay:10.37,2013-07-20 16:03:00,
2013-07-20 12:08:00,85.5,75.0,29.85,SW,226,15.0,15.0,71,0.00,CLR,,0.00,WeatherDisplay:10.37,2013-07-20 16:08:00,
2013-07-20 12:13:00,85.7,75.6,29.85,SW,221,11.5,11.5,72,0.00,CLR,,0.00,WeatherDisplay:10.37,2013-07-20 16:13:00,
2013-07-20 12:18:00,85.4,75.3,29.85,SSE,163,11.0,11.0,72,0.00,CLR,,0.00,WeatherDisplay:10.37,2013-07-20 16:18:00,
2013-07-20 12:23:00,85.5,74.6,29.85,WSW,253,16.1,16.1,70,0.00,CLR,,0.00,WeatherDisplay:10.37,2013-07-20 16:23:00,
2013-07-20 12:28:00,85.6,75.9,29.84,WSW,248,11.5,11.5,73,0.00,CLR,,0.00,WeatherDisplay:10.37,2013-07-20 16:28:00,
2013-07-20 12:33:00,85.2,74.3,29.85,SW,219,12.7,12.7,70,0.00,CLR,,0.00,WeatherDisplay:10.37,2013-07-20 16:33:00,
2013-07-20 12:38:00,85.9,75.8,29.84,SSW,207,15.0,15.0,72,0.00,CLR,,0.00,WeatherDisplay:10.37,2013-07-20 16:38:00,
2013-07-20 12:43:00,85.9,75.0,29.85,West,264,15.0,15.0,70,0.00,CLR,,0.00,WeatherDisplay:10.37,2013-07-20 16:43:00,
2013-07-20 12:48:00,85.7,74.8,29.84,WSW,238,13.8,13.8,70,0.00,CLR,,0.00,WeatherDisplay:10.37,2013-07-20 16:48:00,
2013-07-20 12:53:00,85.9,75.8,29.84,West,279,12.7,12.7,72,0.00,CLR,,0.00,WeatherDisplay:10.37,2013-07-20 16:53:00,
2013-07-20 12:58:00,86.0,75.1,29.84,West,280,13.8,13.8,70,0.00,CLR,,0.00,WeatherDisplay:10.37,2013-07-20 16:58:00,
2013-07-20 13:03:00,86.5,75.5,29.84,West,281,10.4,10.4,70,0.00,CLR,,0.00,WeatherDisplay:10.37,2013-07-20 17:03:00,
2013-07-20 13:08:00,86.1,74.7,29.83,West,273,15.0,15.0,69,0.00,CLR,,0.00,WeatherDisplay:10.37,2013-07-20 17:08:00,
2013-07-20 13:13:00,86.7,75.3,29.83,West,280,11.5,11.5,69,0.00,CLR,,0.00,WeatherDisplay:10.37,2013-07-20 17:13:00,
2013-07-20 13:19:00,86.9,75.5,29.83,West,264,13.8,13.8,69,0.00,CLR,,0.00,WeatherDisplay:10.37,2013-07-20 17:19:00,
2013-07-20 13:24:00,86.4,75.0,29.83,WSW,241,16.1,16.1,69,0.00,CLR,,0.00,WeatherDisplay:10.37,2013-07-20 17:24:00,
2013-07-20 13:29:00,86.4,75.5,29.82,SSW,212,19.6,19.6,70,0.00,CLR,,0.00,WeatherDisplay:10.37,2013-07-20 17:29:00,
2013-07-20 13:34:00,86.2,75.7,29.82,WSW,238,11.5,11.5,71,0.00,CLR,,0.00,WeatherDisplay:10.37,2013-07-20 17:34:00,
2013-07-20 13:39:00,86.9,77.2,29.82,SSW,208,9.2,9.2,73,0.00,CLR,,0.00,WeatherDisplay:10.37,2013-07-20 17:39:00,
2013-07-20 13:44:00,86.9,75.1,29.82,SW,214,19.6,19.6,68,0.00,CLR,,0.00,WeatherDisplay:10.37,2013-07-20 17:44:00,
2013-07-20 13:49:00,86.5,75.1,29.81,SSE,168,9.0,9.0,69,0.00,CLR,,0.00,WeatherDisplay:10.37,2013-07-20 17:49:00,
2013-07-20 13:54:00,86.3,75.4,29.81,SSW,200,18.4,18.4,70,0.00,CLR,,0.00,WeatherDisplay:10.37,2013-07-20 17:54:00,
2013-07-20 13:59:00,86.7,76.2,29.81,SSE,164,11.5,11.5,71,0.00,CLR,,0.00,WeatherDisplay:10.37,2013-07-20 17:59:00,
2013-07-20 14:04:00,87.2,76.2,29.81,WSW,243,15.0,15.0,70,0.00,CLR,,0.00,WeatherDisplay:10.37,2013-07-20 18:04:00,
2013-07-20 14:09:00,87.0,76.0,29.81,SSW,202,12.7,12.7,70,0.00,CLR,,0.00,WeatherDisplay:10.37,2013-07-20 18:09:00,
2013-07-20 14:14:00,86.7,76.2,29.81,WSW,254,18.4,18.4,71,0.00,CLR,,0.00,WeatherDisplay:10.37,2013-07-20 18:14:00,
2013-07-20 14:19:00,86.9,75.5,29.81,SW,230,18.4,18.4,69,0.00,CLR,,0.00,WeatherDisplay:10.37,2013-07-20 18:19:00,
2013-07-20 14:24:00,87.4,76.4,29.80,SSW,200,17.3,17.3,70,0.00,CLR,,0.00,WeatherDisplay:10.37,2013-07-20 18:24:00,
2013-07-20 14:29:00,87.8,76.8,29.81,SW,234,15.0,15.0,70,0.00,CLR,,0.00,WeatherDisplay:10.37,2013-07-20 18:29:00,
2013-07-20 14:34:00,88.3,76.8,29.81,SW,223,17.3,17.3,69,0.00,CLR,,0.00,WeatherDisplay:10.37,2013-07-20 18:34:00,
2013-07-20 14:39:00,88.0,76.5,29.80,WSW,241,13.8,13.8,69,0.00,CLR,,0.00,WeatherDisplay:10.37,2013-07-20 18:39:00,
2013-07-20 14:44:00,87.8,75.9,29.80,SSW,205,12.0,12.0,68,0.00,CLR,,0.00,WeatherDisplay:10.37,2013-07-20 18:44:00,
2013-07-20 14:49:00,88.3,75.5,29.80,WSW,257,13.8,13.8,66,0.00,CLR,,0.00,WeatherDisplay:10.37,2013-07-20 18:49:00,
2013-07-20 14:54:00,87.8,74.6,29.79,WSW,246,17.3,17.3,65,0.00,CLR,,0.00,WeatherDisplay:10.37,2013-07-20 18:54:00,
2013-07-20 15:00:00,87.2,76.2,29.79,SW,223,11.5,11.5,70,0.00,CLR,,0.00,WeatherDisplay:10.37,2013-07-20 19:00:00,
2013-07-20 15:05:00,87.7,76.3,29.79,SSW,201,13.8,13.8,69,0.00,CLR,,0.00,WeatherDisplay:10.37,2013-07-20 19:05:00,
2013-07-20 15:10:00,87.1,75.7,29.78,SSW,211,10.0,20.0,69,0.00,CLR,,0.00,WeatherDisplay:10.37,2013-07-20 19:10:00,
2013-07-20 15:15:00,86.6,75.6,29.79,SSW,212,11.5,11.5,70,0.00,CLR,,0.00,WeatherDisplay:10.37,2013-07-20 19:15:00,
2013-07-20 15:21:00,86.2,74.8,29.79,WSW,254,16.1,16.1,69,0.00,CLR,,0.00,WeatherDisplay:10.37,2013-07-20 19:21:00,
2013-07-20 15:26:00,85.9,75.0,29.79,West,267,15.0,15.0,70,0.00,CLR,,0.00,WeatherDisplay:10.37,2013-07-20 19:26:00,
2013-07-20 15:31:00,85.8,74.4,29.79,SSW,205,15.0,15.0,69,0.00,CLR,,0.00,WeatherDisplay:10.37,2013-07-20 19:31:00,
2013-07-20 15:36:00,85.6,74.7,29.78,SSW,209,11.5,11.5,70,0.00,CLR,,0.00,WeatherDisplay:10.37,2013-07-20 19:36:00,
2013-07-20 15:42:00,86.0,75.9,29.78,SW,219,5.8,5.8,72,0.00,CLR,,0.00,WeatherDisplay:10.37,2013-07-20 19:42:00,
2013-07-20 15:47:00,86.7,76.6,29.78,West,269,8.0,8.0,72,0.00,CLR,,0.00,WeatherDisplay:10.37,2013-07-20 19:47:00,
2013-07-20 15:52:00,87.2,77.5,29.78,West,259,10.4,10.4,73,0.00,CLR,,0.00,WeatherDisplay:10.37,2013-07-20 19:52:00,
2013-07-20 15:57:00,87.5,76.5,29.78,West,268,17.3,17.3,70,0.00,CLR,,0.00,WeatherDisplay:10.37,2013-07-20 19:57:00,
2013-07-20 16:02:00,87.0,75.2,29.79,SW,226,17.3,17.3,68,0.00,CLR,,0.00,WeatherDisplay:10.37,2013-07-20 20:02:00,
2013-07-20 16:07:00,85.9,74.5,29.80,SW,233,12.7,12.7,69,0.00,CLR,,0.00,WeatherDisplay:10.37,2013-07-20 20:07:00,
2013-07-20 16:13:00,83.2,71.5,29.82,NNW,344,9.2,9.2,68,0.00,CLR,,0.00,WeatherDisplay:10.37,2013-07-20 20:13:00,
2013-07-20 16:18:00,79.4,71.2,29.83,East,95,12.7,12.7,76,0.05,RA,,0.06,WeatherDisplay:10.37,2013-07-20 20:18:00,
2013-07-20 16:23:00,76.6,71.0,29.81,East,79,6.9,6.9,83,0.08,RA,,0.08,WeatherDisplay:10.37,2013-07-20 20:23:00,
2013-07-20 16:28:00,74.8,70.3,29.80,NE,39,11.5,11.5,86,0.08,CLR,,0.08,WeatherDisplay:10.37,2013-07-20 20:28:00,
2013-07-20 16:33:00,74.1,70.6,29.80,ESE,104,8.1,8.1,89,0.08,CLR,,0.08,WeatherDisplay:10.37,2013-07-20 20:33:00,
2013-07-20 16:39:00,73.7,70.9,29.80,ESE,109,2.3,2.3,91,0.08,CLR,,0.08,WeatherDisplay:10.37,2013-07-20 20:39:00,
2013-07-20 16:44:00,73.7,71.2,29.80,ESE,109,2.3,2.3,92,0.08,CLR,,0.08,WeatherDisplay:10.37,2013-07-20 20:44:00,
2013-07-20 16:49:00,73.7,71.5,29.81,ESE,109,2.3,0.0,93,0.08,CLR,,0.08,WeatherDisplay:10.37,2013-07-20 20:49:00,
2013-07-20 16:54:00,73.7,71.5,29.82,SW,228,3.5,3.5,93,0.08,CLR,,0.08,WeatherDisplay:10.37,2013-07-20 20:54:00,
2013-07-20 17:00:00,73.9,72.0,29.83,SW,226,5.0,7.0,94,0.00,CLR,,0.08,WeatherDisplay:10.37,2013-07-20 21:00:00,
2013-07-20 17:05:00,73.9,72.1,29.83,WSW,252,3.5,3.5,94,0.08,CLR,,0.08,WeatherDisplay:10.37,2013-07-20 21:05:00,
2013-07-20 17:10:00,73.8,71.6,29.81,West,269,2.3,2.3,93,0.08,CLR,,0.08,WeatherDisplay:10.37,2013-07-20 21:10:00,
2013-07-20 17:15:00,73.7,71.5,29.82,West,279,3.0,7.0,93,0.00,CLR,,0.08,WeatherDisplay:10.37,2013-07-20 21:15:00,
2013-07-20 17:20:00,73.7,71.2,29.82,NNW,344,6.0,6.0,92,0.01,CLR,,0.08,WeatherDisplay:10.37,2013-07-20 21:20:00,
2013-07-20 17:25:00,73.8,71.0,29.82,NW,311,6.0,6.0,91,0.00,CLR,,0.08,WeatherDisplay:10.37,2013-07-20 21:25:00,
2013-07-20 17:30:00,74.1,71.0,29.82,WNW,302,3.5,3.5,90,0.00,CLR,,0.08,WeatherDisplay:10.37,2013-07-20 21:30:00,
2013-07-20 17:35:00,74.4,71.3,29.82,NW,304,3.0,3.0,90,0.00,CLR,,0.08,WeatherDisplay:10.37,2013-07-20 21:35:00,
2013-07-20 17:40:00,74.7,71.6,29.82,WNW,297,2.3,2.3,90,0.00,CLR,,0.08,WeatherDisplay:10.37,2013-07-20 21:40:00,
2013-07-20 17:46:00,74.8,71.0,29.82,West,267,3.5,3.5,88,0.00,CLR,,0.08,WeatherDisplay:10.37,2013-07-20 21:46:00,
2013-07-20 17:51:00,75.0,70.5,29.83,WNW,286,3.5,3.5,86,0.00,CLR,,0.08,WeatherDisplay:10.37,2013-07-20 21:51:00,
2013-07-20 17:56:00,75.2,70.4,29.83,WNW,286,4.0,4.0,85,0.00,CLR,,0.08,WeatherDisplay:10.37,2013-07-20 21:56:00,
2013-07-20 18:01:00,75.4,70.2,29.84,WNW,286,3.5,3.5,84,0.00,CLR,,0.08,WeatherDisplay:10.37,2013-07-20 22:01:00,
2013-07-20 18:06:00,75.6,70.4,29.83,WNW,286,3.5,3.5,84,0.00,CLR,,0.08,WeatherDisplay:10.37,2013-07-20 22:06:00,
2013-07-20 18:12:00,75.9,70.7,29.83,NNW,329,3.5,3.5,84,0.00,CLR,,0.08,WeatherDisplay:10.37,2013-07-20 22:12:00,
2013-07-20 18:17:00,76.1,71.3,29.83,NNW,329,5.8,5.8,85,0.00,CLR,,0.08,WeatherDisplay:10.37,2013-07-20 22:17:00,
2013-07-20 18:22:00,76.2,71.0,29.83,NNW,333,3.5,3.5,84,0.00,CLR,,0.08,WeatherDisplay:10.37,2013-07-20 22:22:00,
2013-07-20 18:28:00,76.4,71.6,29.83,NW,321,3.5,3.5,85,0.00,CLR,,0.08,WeatherDisplay:10.37,2013-07-20 22:28:00,
2013-07-20 18:33:00,76.5,71.7,29.83,NW,304,3.5,3.5,85,0.00,CLR,,0.08,WeatherDisplay:10.37,2013-07-20 22:33:00,
2013-07-20 18:38:00,76.6,71.7,29.83,NW,304,0.0,0.0,85,0.00,CLR,,0.08,WeatherDisplay:10.37,2013-07-20 22:38:00,
2013-07-20 18:43:00,76.5,71.7,29.82,NW,304,2.3,2.3,85,0.00,CLR,,0.08,WeatherDisplay:10.37,2013-07-20 22:43:00,
2013-07-20 18:48:00,76.4,71.2,29.82,NW,304,3.5,3.5,84,0.00,CLR,,0.08,WeatherDisplay:10.37,2013-07-20 22:48:00,
2013-07-20 18:54:00,76.5,71.3,29.83,WNW,300,3.5,3.5,84,0.00,CLR,,0.08,WeatherDisplay:10.37,2013-07-20 22:54:00,
2013-07-20 18:59:00,76.6,71.0,29.83,WNW,300,2.3,2.3,83,0.00,CLR,,0.08,WeatherDisplay:10.37,2013-07-20 22:59:00,
2013-07-20 19:04:00,76.7,71.1,29.83,WNW,300,2.3,2.3,83,0.00,CLR,,0.08,WeatherDisplay:10.37,2013-07-20 23:04:00,
2013-07-20 19:09:00,76.7,70.8,29.83,WNW,300,3.5,3.5,82,0.00,CLR,,0.08,WeatherDisplay:10.37,2013-07-20 23:09:00,
2013-07-20 19:14:00,76.6,70.3,29.84,WNW,300,3.5,3.5,81,0.00,CLR,,0.08,WeatherDisplay:10.37,2013-07-20 23:14:00,
2013-07-20 19:20:00,76.6,70.7,29.84,WNW,300,2.0,3.0,82,0.00,CLR,,0.08,WeatherDisplay:10.37,2013-07-20 23:20:00,
2013-07-20 19:25:00,76.4,70.2,29.84,WNW,300,2.0,4.0,81,0.00,CLR,,0.08,WeatherDisplay:10.37,2013-07-20 23:25:00,
2013-07-20 19:30:00,76.3,70.1,29.84,WNW,300,2.0,4.0,81,0.00,CLR,,0.08,WeatherDisplay:10.37,2013-07-20 23:30:00,
2013-07-20 19:35:00,76.3,70.0,29.84,WNW,300,2.0,3.0,81,0.00,CLR,,0.08,WeatherDisplay:10.37,2013-07-20 23:35:00,
2013-07-20 19:40:00,76.2,69.6,29.84,WNW,300,2.3,2.3,80,0.00,CLR,,0.08,WeatherDisplay:10.37,2013-07-20 23:40:00,
2013-07-20 19:45:00,76.1,69.5,29.84,WNW,300,3.5,3.5,80,0.00,CLR,,0.08,WeatherDisplay:10.37,2013-07-20 23:45:00,
2013-07-20 19:50:00,76.0,69.4,29.83,WNW,300,2.0,4.0,80,0.00,CLR,,0.08,WeatherDisplay:10.37,2013-07-20 23:50:00,
2013-07-20 19:55:00,75.8,68.8,29.83,WNW,300,1.0,2.0,79,0.00,CLR,,0.08,WeatherDisplay:10.37,2013-07-20 23:55:00,
2013-07-20 20:00:00,75.7,69.1,29.83,WNW,300,0.0,2.0,80,0.00,CLR,,0.08,WeatherDisplay:10.37,2013-07-21 00:00:00,
2013-07-20 20:05:00,75.6,69.7,29.82,WNW,300,2.3,2.3,82,0.00,CLR,,0.08,WeatherDisplay:10.37,2013-07-21 00:05:00,
2013-07-20 20:10:00,75.4,69.2,29.83,WNW,300,2.3,2.3,81,0.00,CLR,,0.08,WeatherDisplay:10.37,2013-07-21 00:10:00,
2013-07-20 20:15:00,75.3,69.1,29.83,WNW,300,1.2,1.2,81,0.00,CLR,,0.08,WeatherDisplay:10.37,2013-07-21 00:15:00,
2013-07-20 20:20:00,75.2,69.0,29.83,WNW,300,2.3,2.3,81,0.00,CLR,,0.08,WeatherDisplay:10.37,2013-07-21 00:20:00,
2013-07-20 20:25:00,75.1,69.9,29.83,WNW,300,1.2,1.2,84,0.00,CLR,,0.08,WeatherDisplay:10.37,2013-07-21 00:25:00,
2013-07-20 20:30:00,74.8,69.6,29.83,WNW,300,1.2,1.2,84,0.00,CLR,,0.08,WeatherDisplay:10.37,2013-07-21 00:30:00,
2013-07-20 20:35:00,74.6,69.8,29.84,WNW,300,2.3,2.3,85,0.00,CLR,,0.08,WeatherDisplay:10.37,2013-07-21 00:35:00,
2013-07-20 20:41:00,74.4,69.6,29.84,WNW,300,4.0,4.0,85,0.00,CLR,,0.08,WeatherDisplay:10.37,2013-07-21 00:41:00,
2013-07-20 20:46:00,74.3,68.4,29.85,WNW,300,4.6,4.6,82,0.00,CLR,,0.08,WeatherDisplay:10.37,2013-07-21 00:46:00,
2013-07-20 20:52:00,74.2,68.3,29.86,WNW,299,4.6,4.6,82,0.00,CLR,,0.08,WeatherDisplay:10.37,2013-07-21 00:52:00,
2013-07-20 20:57:00,74.2,68.3,29.86,WNW,298,2.3,2.3,82,0.00,CLR,,0.08,WeatherDisplay:10.37,2013-07-21 00:57:00,
2013-07-20 21:02:00,74.2,68.3,29.86,WNW,298,2.3,2.3,82,0.00,CLR,,0.08,WeatherDisplay:10.37,2013-07-21 01:02:00,
2013-07-20 21:07:00,74.2,68.0,29.87,WNW,298,2.3,2.3,81,0.00,CLR,,0.08,WeatherDisplay:10.37,2013-07-21 01:07:00,
2013-07-20 21:13:00,74.2,68.0,29.87,WNW,298,2.3,2.3,81,0.00,CLR,,0.08,WeatherDisplay:10.37,2013-07-21 01:13:00,
2013-07-20 21:19:00,74.2,68.0,29.86,WNW,298,2.3,2.3,81,0.00,CLR,,0.08,WeatherDisplay:10.37,2013-07-21 01:19:00,
2013-07-20 21:24:00,74.2,68.0,29.86,WNW,298,3.5,3.5,81,0.00,CLR,,0.08,WeatherDisplay:10.37,2013-07-21 01:24:00,
2013-07-20 21:29:00,74.2,68.0,29.85,West,274,3.5,3.5,81,0.00,CLR,,0.08,WeatherDisplay:10.37,2013-07-21 01:29:00,
2013-07-20 21:35:00,74.2,68.3,29.85,West,274,1.2,1.2,82,0.00,CLR,,0.08,WeatherDisplay:10.37,2013-07-21 01:35:00,
2013-07-20 21:40:00,74.0,68.2,29.85,West,274,1.2,1.2,82,0.00,CLR,,0.08,WeatherDisplay:10.37,2013-07-21 01:40:00,
2013-07-20 21:46:00,73.9,68.4,29.85,West,274,1.2,0.0,83,0.00,CLR,,0.08,WeatherDisplay:10.37,2013-07-21 01:46:00,
2013-07-20 21:51:00,73.6,68.5,29.85,West,274,0.0,0.0,84,0.00,CLR,,0.08,WeatherDisplay:10.37,2013-07-21 01:51:00,
2013-07-20 21:56:00,73.3,68.2,29.86,NNW,337,4.6,4.6,84,0.00,CLR,,0.08,WeatherDisplay:10.37,2013-07-21 01:56:00,
2013-07-20 22:02:00,73.2,68.1,29.86,NNW,327,1.2,1.2,84,0.00,CLR,,0.08,WeatherDisplay:10.37,2013-07-21 02:02:00,
2013-07-20 22:07:00,73.1,68.3,29.85,NNW,336,1.2,1.2,85,0.00,CLR,,0.08,WeatherDisplay:10.37,2013-07-21 02:07:00,
2013-07-20 22:13:00,73.1,68.7,29.85,NNW,336,0.0,0.0,86,0.00,CLR,,0.08,WeatherDisplay:10.37,2013-07-21 02:13:00,
2013-07-20 22:18:00,73.0,68.6,29.85,NNW,336,0.0,0.0,86,0.00,CLR,,0.08,WeatherDisplay:10.37,2013-07-21 02:18:00,
2013-07-20 22:24:00,73.0,68.9,29.85,NNW,336,1.2,0.0,87,0.00,CLR,,0.08,WeatherDisplay:10.37,2013-07-21 02:24:00,
2013-07-20 22:29:00,72.8,68.7,29.86,NW,314,6.9,6.9,87,0.00,CLR,,0.08,WeatherDisplay:10.37,2013-07-21 02:29:00,
2013-07-20 22:35:00,72.7,68.6,29.85,NW,316,0.0,3.0,87,0.00,CLR,,0.08,WeatherDisplay:10.37,2013-07-21 02:35:00,
2013-07-20 22:40:00,72.7,68.6,29.86,NW,314,0.0,4.0,87,0.00,CLR,,0.08,WeatherDisplay:10.37,2013-07-21 02:40:00,
2013-07-20 22:45:00,72.7,68.6,29.87,NW,314,2.3,2.3,87,0.00,CLR,,0.08,WeatherDisplay:10.37,2013-07-21 02:45:00,
2013-07-20 22:50:00,72.8,68.3,29.86,NW,314,0.0,2.0,86,0.00,CLR,,0.08,WeatherDisplay:10.37,2013-07-21 02:50:00,
2013-07-20 22:55:00,72.8,68.7,29.86,NW,313,0.0,0.0,87,0.00,CLR,,0.08,WeatherDisplay:10.37,2013-07-21 02:55:00,
2013-07-20 23:01:00,72.7,68.9,29.87,NW,314,1.2,1.2,88,0.00,CLR,,0.08,WeatherDisplay:10.37,2013-07-21 03:01:00,
2013-07-20 23:06:00,72.6,68.8,29.87,NW,314,2.3,2.3,88,0.00,CLR,,0.08,WeatherDisplay:10.37,2013-07-21 03:06:00,
2013-07-20 23:11:00,72.5,68.7,29.86,NW,314,1.2,1.2,88,0.00,CLR,,0.08,WeatherDisplay:10.37,2013-07-21 03:11:00,
2013-07-20 23:16:00,72.5,68.7,29.87,NW,314,2.3,2.3,88,0.00,CLR,,0.08,WeatherDisplay:10.37,2013-07-21 03:16:00,
2013-07-20 23:21:00,72.4,68.6,29.87,NW,314,3.5,3.5,88,0.00,CLR,,0.08,WeatherDisplay:10.37,2013-07-21 03:21:00,
2013-07-20 23:26:00,72.4,68.3,29.87,NW,313,3.0,3.0,87,0.00,CLR,,0.08,WeatherDisplay:10.37,2013-07-21 03:26:00,
2013-07-20 23:31:00,72.4,68.6,29.88,NW,313,2.3,2.3,88,0.00,CLR,,0.08,WeatherDisplay:10.37,2013-07-21 03:31:00,
2013-07-20 23:36:00,72.4,68.3,29.88,NW,313,2.3,2.3,87,0.00,CLR,,0.08,WeatherDisplay:10.37,2013-07-21 03:36:00,
2013-07-20 23:42:00,72.4,68.3,29.88,NW,313,2.3,2.3,87,0.00,CLR,,0.08,WeatherDisplay:10.37,2013-07-21 03:42:00,
2013-07-20 23:47:00,72.4,68.3,29.88,NW,313,2.3,2.3,87,0.00,CLR,,0.08,WeatherDisplay:10.37,2013-07-21 03:47:00,
2013-07-20 23:52:00,72.5,68.4,29.88,NW,313,1.2,0.0,87,0.00,CLR,,0.08,WeatherDisplay:10.37,2013-07-21 03:52:00,
2013-07-20 23:58:00,72.4,68.3,29.88,NW,313,0.0,0.0,87,0.00,CLR,,0.08,WeatherDisplay:10.37,2013-07-21 03:58:00,